Station DPOA2 - Dutch Harbor Port Office, AK Image indicating link to RSS feed of recent meteorological observations for station DPOA2


Conditions at DPOA2 as of
(9:44 pm AKDT on 04/14/2024)
0544 GMT on 04/15/2024:
     

Click on the graph icon in the table below to see a time series plot of the last five days of that observation.

5-day plot - Wind Direction Wind Direction (WDIR): S ( 190 deg true )
5-day plot - Wind Speed Wind Speed (WSPD): 7 kts
5-day plot - Wind Gust Wind Gust (GST): 17 kts
5-day plot - Air Temperature Air Temperature (ATMP): 36.5 °F
5-day plot - Dew Point Dew Point (DEWP): 27.7 °F
5-day plot - Wind Chill Wind Chill (CHILL): 30.4 °F
5-day plot - Wind Speed at 10 Meters Wind Speed at 10 meters (WSPD10M): 8 kts
5-day plot - Wind Speed at 20 Meters Wind Speed at 20 meters (WSPD20M): 8 kts
5-day plot -  Wind Speed, Wind Gust and Atmospheric Pressure Combined plot of Wind Speed, Gust, and Air Pressure
Previous observations
TIME
(AKDT)
5-day plot - Wind Direction
WDIR
 
5-day plot - Wind Speed
WSPD
kts
5-day plot - Wind Gust
GST
kts
5-day plot - Wave Height
WVHT
ft
5-day plot - Dominant Wave Period
DPD
sec
5-day plot - Average Wave Period
APD
sec
5-day plot - Mean Wave Direction
MWD
 
5-day plot - Atmospheric Pressure
PRES
in
5-day plot - Pressure Tendency
PTDY
in
5-day plot - Air Temperature
ATMP
°F
5-day plot - Water Temperature
WTMP
°F
5-day plot - Dew Point
DEWP
°F
5-day plot - Salinity
SAL
psu
5-day plot - Visibility
VIS
nmi
5-day plot - Tide (above MLLW)
TIDE
ft
2024-04-14 09:34 pm S 7 17------ 36.5- 27.5---
2024-04-14 09:24 pm S 8 16------ 36.3- 27.7---
2024-04-14 09:14 pm S 7 20------ 36.5- 27.9---
2024-04-14 09:04 pm S 9 22------ 36.5- 27.9---
2024-04-14 08:55 pm S 9 21------ 36.5- 28.0---
2024-04-14 08:45 pm S 9 18------ 36.5- 28.0---
2024-04-14 08:35 pm S 9 19------ 36.5- 27.9---
2024-04-14 08:25 pm S 10 17------ 36.5- 28.0---
2024-04-14 08:14 pm S 8 17------ 36.5- 28.0---
2024-04-14 08:04 pm S 9 20------ 36.5- 28.0---
2024-04-14 07:54 pm S 8 20------ 36.7- 27.9---
2024-04-14 07:44 pm S 6 15------ 36.7- 27.5---
2024-04-14 07:34 pm S 6 17------ 36.5- 27.5---
2024-04-14 07:24 pm S 6 16------ 36.7- 27.5---
2024-04-14 07:14 pm S 7 15------ 36.9- 27.0---
2024-04-14 07:04 pmSSW 8 19------ 36.7- 27.0---
2024-04-14 06:54 pmSSW 9 18------ 36.5- 26.8---
2024-04-14 06:44 pm S 9 17------ 36.5- 26.8---
2024-04-14 06:34 pm S 9 18------ 36.7- 27.1---
2024-04-14 06:24 pm S 9 17------ 37.0- 27.5---
2024-04-14 06:14 pm S 8 18------ 37.2- 27.5---
2024-04-14 06:04 pm S 8 15------ 37.2- 27.7---
2024-04-14 05:55 pm S 8 17------ 37.2- 27.5---
2024-04-14 05:44 pm S 8 19------ 37.4- 27.9---
2024-04-14 05:34 pm S 6 15------ 37.6- 27.9---
2024-04-14 05:25 pm S 7 17------ 37.6- 28.0---
2024-04-14 05:14 pm S 7 16------ 37.8- 27.7---
2024-04-14 05:04 pm S 6 14------ 38.1- 27.7---
2024-04-14 04:54 pm S 7 16------ 37.9- 27.5---
2024-04-14 04:44 pm S 6 16------ 37.8- 27.3---
2024-04-14 04:34 pm S 6 13------ 37.8- 27.0---
2024-04-14 04:24 pm S 7 14------ 37.9- 27.1---
2024-04-14 04:14 pm S 7 13------ 37.8- 26.8---
2024-04-14 03:54 pm S 6 16------ 38.1- 27.5---
2024-04-14 03:44 pm S 7 13------ 38.1- 27.5---
2024-04-14 03:34 pm S 6 13------ 37.9- 27.0---
2024-04-14 03:24 pm S 6 13------ 37.8- 27.3---
2024-04-14 03:14 pm S 6 14------ 38.3- 27.1---
2024-04-14 03:04 pm S 6 13------ 38.5- 27.3---
2024-04-14 02:54 pm S 6 16------ 38.3- 27.1---
2024-04-14 02:44 pm S 6 13------ 38.3- 27.1---
2024-04-14 02:35 pm S 5 15------ 38.5- 27.1---
2024-04-14 02:24 pm S 5 13------ 37.9- 26.4---
2024-04-14 02:14 pm S 6 10------ 37.8- 26.6---
2024-04-14 02:04 pm S 5 11------ 37.4- 26.1---
2024-04-14 01:54 pm S 5 10------ 37.6- 25.9---
2024-04-14 01:44 pm S 5 13------ 37.4- 25.3---
2024-04-14 01:34 pm S 3 12------ 37.2- 25.0---
2024-04-14 01:24 pm S 4 9------ 37.0- 25.3---
2024-04-14 01:14 pm S 4 11------ 36.5- 25.2---
2024-04-14 01:04 pm S 6 9------ 36.1- 25.2---
2024-04-14 12:54 pm S 4 10------ 35.8- 24.6---
2024-04-14 12:44 pm S 4 10------ 35.6- 24.6---
2024-04-14 12:34 pm S 5 8------ 35.4- 24.8---
2024-04-14 12:24 pm S 4 9------ 35.4- 25.0---
2024-04-14 12:14 pm S 4 11------ 35.2- 25.0---
2024-04-14 12:05 pm SW 3 6------ 35.1- 24.3---
2024-04-14 11:54 am SW 3 6------ 34.9- 24.1---
2024-04-14 11:44 amWSW 2 5------ 34.9- 24.1---
2024-04-14 11:34 amWSW 2 5------ 34.7- 23.9---
2024-04-14 11:24 am W 2 3------ 34.5- 23.9---
2024-04-14 11:14 amWSW 2 3------ 34.5- 23.5---
2024-04-14 11:04 amNNW 1 4------ 34.0- 23.2---
2024-04-14 10:54 am NE 2 4------ 33.4- 23.0---
2024-04-14 10:44 amNNE 2 4------ 33.3- 23.0---
2024-04-14 10:34 am NE 2 4------ 32.9- 22.8---
2024-04-14 10:24 am NE 3 4------ 32.7- 22.5---
2024-04-14 10:14 am NE 1 3------ 32.7- 22.3---
2024-04-14 10:04 amNNE 2 3------ 32.5- 22.1---
2024-04-14 09:54 amNNE 2 3------ 32.5- 21.7---
2024-04-14 09:44 am E 1 3------ 32.7- 21.9---
2024-04-14 09:34 am- 0 2------ 32.5- 21.9---
2024-04-14 09:24 amSSE 1 3------ 32.4- 21.7---
2024-04-14 09:19 am- 0 2------ 32.4- 21.7---
2024-04-14 09:14 am- 0 2------ 32.4- 21.7---
2024-04-14 08:55 amSSW 1 2------ 32.0- 21.4---
2024-04-14 08:45 amWSW 2 5------ 31.6- 21.6---
2024-04-14 08:35 amWSW 2 3------ 31.5- 21.4---
2024-04-14 08:25 amWNW 2 5------ 31.3- 21.6---
2024-04-14 08:14 amNNW 2 5------ 31.3- 21.6---
2024-04-14 08:04 amWSW 2 5------ 31.3- 21.7---
2024-04-14 07:54 amWSW 2 5------ 31.3- 21.9---
2024-04-14 07:44 amWSW 2 5------ 31.3- 21.9---
2024-04-14 07:34 amWSW 2 5------ 31.3- 21.9---
2024-04-14 07:24 am W 2 4------ 31.3- 21.7---
2024-04-14 07:14 am W 2 5------ 31.3- 21.9---
2024-04-14 07:04 amWSW 4 6------ 31.3- 21.7---
2024-04-14 06:54 amWSW 3 6------ 31.3- 21.7---
2024-04-14 06:44 amWSW 2 6------ 31.5- 21.9---
2024-04-14 06:34 am W 1 4------ 31.5- 21.9---
2024-04-14 06:24 am W 1 4------ 31.5- 21.7---
2024-04-14 06:14 am W 1 4------ 31.3- 21.9---
2024-04-14 06:04 amWNW 1 4------ 31.1- 21.6---
2024-04-14 05:55 amWSW 2 5------ 31.1- 21.4---
2024-04-14 05:45 am W 4 6------ 31.1- 21.4---
2024-04-14 05:34 am W 3 6------ 31.1- 21.6---
2024-04-14 05:24 amWSW 3 6------ 31.3- 21.6---
2024-04-14 05:14 am W 2 5------ 31.3- 21.9---
2024-04-14 05:04 am W 2 7------ 31.6- 21.9---
2024-04-14 04:54 am W 2 4------ 31.6- 22.3---
2024-04-14 04:44 am NW 3 5------ 31.5- 22.5---
2024-04-14 04:34 amWNW 3 6------ 31.5- 22.1---
2024-04-14 04:24 am W 3 5------ 31.6- 22.1---
2024-04-14 04:14 am W 3 5------ 31.8- 22.1---
2024-04-14 04:04 am W 3 6------ 31.6- 22.3---
2024-04-14 03:54 amWSW 1 3------ 31.5- 22.6---
2024-04-14 03:44 amWNW 3 5------ 31.3- 22.8---
2024-04-14 03:34 am W 3 5------ 31.5- 23.2---
2024-04-14 03:24 am W 4 6------ 31.3- 22.8---
2024-04-14 03:14 am W 3 7------ 30.9- 23.2---
2024-04-14 03:04 amWNW 3 5------ 30.9- 23.4---
2024-04-14 02:54 amWNW 3 5------ 30.6- 23.0---
2024-04-14 02:44 amWNW 3 6------ 30.4- 22.8---
2024-04-14 02:34 amWNW 4 6------ 30.2- 22.5---
2024-04-14 02:24 am NW 4 6------ 30.4- 22.5---
2024-04-14 02:14 am NW 4 7------ 30.6- 22.6---
2024-04-14 02:04 am NW 4 6------ 30.9- 22.5---
2024-04-14 01:54 am NW 4 6------ 31.1- 22.5---
2024-04-14 01:44 am NW 5 7------ 31.1- 22.5---
2024-04-14 01:34 amWNW 4 7------ 31.1- 22.5---
2024-04-14 01:24 am W 4 6------ 31.6- 22.8---
2024-04-14 01:14 am W 3 6------ 32.0- 22.8---
2024-04-14 01:04 am W 2 4------ 32.5- 22.6---
2024-04-14 12:54 am NW 3 4------ 32.5- 22.3---
2024-04-14 12:34 am NW 3 7------ 32.4- 22.5---
2024-04-14 12:24 am NW 3 5------ 32.2- 22.6---
2024-04-14 12:16 am NW 2 4------ 32.2- 22.8---
2024-04-14 12:05 amWSW 2 4------ 32.4- 22.6---
2024-04-13 11:54 pmWSW 2 6------ 32.5- 22.6---
2024-04-13 11:44 pm W 2 5------ 32.7- 22.8---
2024-04-13 11:34 pm NW 2 4------ 32.9- 22.5---
2024-04-13 11:24 pmWSW 3 6------ 32.9- 22.6---
2024-04-13 11:14 pmWNW 2 4------ 32.9- 22.5---
2024-04-13 11:04 pm W 2 4------ 32.9- 22.5---
2024-04-13 10:54 pm W 3 7------ 33.1- 22.5---
2024-04-13 10:44 pmWSW 2 9------ 33.1- 22.6---
2024-04-13 10:34 pm NW 3 7------ 33.1- 22.5---
2024-04-13 10:24 pmWSW 2 7------ 33.3- 22.5---
2024-04-13 10:14 pm NW 4 10------ 33.3- 22.1---
2024-04-13 10:04 pmWSW 4 9------ 33.3- 22.3---
2024-04-13 09:54 pmWSW 3 9------ 33.6- 22.5---